User: anonymous   Login
Location: Unspecified
(0.0000°N, 0.0000°E)
Time: 13:39:10
(UTC+02:00)
Language:

Cosmos 1437 - Orbit

View from above orbital plane
View from above orbital plane
View from above satellite
View from above satellite

Ground track
Ground track

The orbit data is extracted from the following two-line orbital elements,

1 13770U 83003A   15111.16309912  .00020532  00000-0  53762-3 0  9990
2 13770 081.1655 027.8089 0010136 128.5710 348.7724 15.38531679764791
Epoch (UTC): 21 April 2015 03:54:51
Eccentricity: 0.0010136
inclination: 81.1655°
perigee height: 443 km
apogee height: 457 km
right ascension of ascending node: 27.8089°
argument of perigee: 128.5710°
revolutions per day: 15.38531679
mean anomaly at epoch: 348.7724°
orbit number at epoch: 76479

The dashed part of the orbit path shows where the satellite is in the earth's shadow,  

DLR